Regional Weather Roundup
Issued by NWS Albany, NY

Home | Current Version | Previous Version | Text Only | Print | Product List | Glossary On
Versions: 1 2 3 4 5 6 7 8 9 10 11 12 13 14 15 16 17 18 19 20 21 22 23 24 25 26 27 28 29 30 31 32 33 34 35 36 37 38 39 40 41 42 43 44 45 46 47 48 49 50
000
ASUS41 KALY 031910
RWRALY

NEW YORK STATE HOURLY WEATHER ROUNDUP
NATIONAL WEATHER SERVICE ALBANY NY
300 PM EDT TUE MAY 03 2016

NOTE: "FAIR" INDICATES FEW OR NO CLOUDS BELOW 12,000 FEET WITH NO
SIGNIFICANT WEATHER AND/OR NO OBSTRUCTIONS TO VISIBILITY.

NYZ032-033-038>043-046>054-057>066-NYZ062>081-082-084-032000-
EAST


CITY           SKY/WX    TMP DP  RH WIND       PRES   REMARKS
ALBANY         CLOUDY    54  41  61 NE7       29.86S
GLENS FALLS    PTSUNNY   53  37  54 VRB3      29.86F
POUGHKEEPSIE   CLOUDY    54  49  83 N6        29.83S
NEWBURGH       LGT RAIN  50  50 100 NE6       29.84S FOG
MONTGOMERY     CLOUDY    52  49  89 NE8       29.82F
WHITE PLAINS   DRIZZLE   51  49  92 SE7       29.82S FOG
ISLIP          DRIZZLE   51  48  89 NE10      29.82S
NEW YORK CITY  DRIZZLE   54  52  94 NE13      29.82F FOG
CENTRAL PARK   CLOUDY    52  49  89 NE10G16   29.84F FOG
$$

NYZ005>009-017-018-044>046-055-056-032000-
CENTRAL


CITY           SKY/WX    TMP DP  RH WIND       PRES   REMARKS
FULTON         CLOUDY    59  41  51 SW6       29.83F
SYRACUSE       PTSUNNY   54  40  59 VRB3      29.83F
ROME           CLOUDY    55  42  61 S3        29.84F
ELMIRA         CLOUDY    52  40  63 CALM      29.82F
BINGHAMTON     CLOUDY    46  44  93 CALM      29.82S FOG
MONTICELLO     CLOUDY    46  46 100 E6        29.84S
$$

NYZ026>034-041>043-087-032000-
NORTH


CITY           SKY/WX    TMP DP  RH WIND       PRES   REMARKS
WATERTOWN      MOSUNNY   59  40  49 VRB3      29.82F
FORT DRUM      NOT AVBL
MASSENA        MOSUNNY   56  38  50 NE13      29.87F
SARANAC LAKE   MOSUNNY   50  35  56 N8        29.82F
PLATTSBURGH    NOT AVBL
$$

NYZ001>004-010>016-019>021-085-032000-
WEST


CITY           SKY/WX    TMP DP  RH WIND       PRES   REMARKS
NIAGARA FALLS  PTSUNNY   60  41  49 E7        29.83F
BUFFALO        PTSUNNY   57  39  51 E6        29.84F
DUNKIRK        CLOUDY    55  41  59 N7        29.85S
JAMESTOWN      CLOUDY    48  43  81 CALM      29.83F
WELLSVILLE     CLOUDY    49  42  77 E5        29.83S
ROCHESTER      PTSUNNY   56  41  57 CALM      29.85F
PENN YAN       CLOUDY    55  39  54 VRB5      29.84F
$$

             KEY
       WCI = WIND CHILL INDEX
       VSB = VISIBILITY
       HX  = HEAT INDEX
$$



USA.gov is the U.S. government's official web portal to all federal, state and local government web resources and services.